Weather History for Faribault, MN

Change the Weather History Date:

Thursday, October 27, 2011

  Actual Average Record
Temperature  
Mean Temperature 42 °F -  
Max Temperature 51 °F 56 °F 78 °F (1989)
Min Temperature 33 °F 35 °F 13 °F (1976)
Degree Days  
Heating Degree Days 23    
Moisture  
Dew Point 30 °F    
Average Humidity 69    
Maximum Humidity 93    
Minimum Humidity 35    
Precipitation  
Precipitation 0.00 in - - ()
Sea Level Pressure  
Sea Level Pressure 30.05 in    
Wind  
Wind Speed 3 mph (WSW)    
Max Wind Speed 10 mph    
Max Gust Speed -    
Visibility 8 miles    
Events Rain    
Averages and records for this station are not official NWS values.
T = Trace of Precipitation, MM = Missing Value Source: NWS Daily Summary

Daily Weather History Graph

Daily Weather History Graph

Search for Another Location

Airport:

Trip Planner

Search our weather history database for the weather conditions in past years. The results will help you decide how hot, cold, wet, or windy it might be!

Date:

Astronomy

Oct. 27, 2011 Rise Set
Actual Time 7:43 AM CDT 6:10 PM CDT
Civil Twilight 7:13 AM CDT 6:40 PM CDT
Nautical Twilight 6:39 AM CDT 7:14 PM CDT
Astronomical Twilight 6:05 AM CDT 7:47 PM CDT
Moon 8:52 AM CDT (10/27) 6:34 PM CDT (10/27)
Length of Visible Light 11h 26m
Length of Day
10h 26m
New Moon, 1% of the Moon is Illuminated
Oct 27
New Moon
Nov 2
First Quarter
Nov 10
Full
Nov 18
Last Quarter
Nov 25
New

Hourly Weather History & Observations

Time (CDT) Temp. Windchill Dew Point Humidity Pressure Visibility Wind Dir Wind Speed Gust Speed Precip Events Conditions
12:14 AM 35.6 °F - 33.8 °F 93% 30.04 in 7.0 mi Calm Calm - N/A   Overcast
12:33 AM 35.6 °F - 33.8 °F 93% 30.05 in 7.0 mi Calm Calm - N/A   Overcast
12:54 AM 37.4 °F - 33.8 °F 87% 30.05 in 7.0 mi Calm Calm - N/A   Overcast
1:14 AM 37.4 °F - 33.8 °F 87% 30.05 in 10.0 mi Calm Calm - N/A   Overcast
1:33 AM 37.4 °F - 33.8 °F 87% 30.05 in 10.0 mi Calm Calm - N/A   Mostly Cloudy
1:54 AM 35.6 °F - 32.0 °F 87% 30.05 in 7.0 mi Calm Calm - N/A   Mostly Cloudy
2:14 AM 35.6 °F - 32.0 °F 87% 30.05 in 7.0 mi Calm Calm - N/A   Overcast
2:33 AM 35.6 °F - 33.8 °F 93% 30.05 in 7.0 mi Calm Calm - N/A   Overcast
3:14 AM 35.6 °F 32.8 °F 33.8 °F 93% 30.04 in 5.0 mi SSW 3.5 mph - N/A   Overcast
3:33 AM 35.6 °F 31.7 °F 33.8 °F 93% 30.04 in 5.0 mi SSW 4.6 mph - N/A   Overcast
3:54 AM 35.6 °F 31.7 °F 33.8 °F 93% 30.04 in 5.0 mi SW 4.6 mph - N/A   Overcast
4:14 AM 37.4 °F 33.8 °F 33.8 °F 87% 30.03 in 5.0 mi WSW 4.6 mph - N/A   Overcast
4:33 AM 37.4 °F 34.9 °F 33.8 °F 87% 30.03 in 7.0 mi SW 3.5 mph - N/A   Overcast
4:54 AM 35.6 °F 32.8 °F 33.8 °F 93% 30.03 in 5.0 mi SSW 3.5 mph - N/A   Overcast
5:13 AM 35.6 °F 31.7 °F 33.8 °F 93% 30.04 in 5.0 mi SSW 4.6 mph - N/A   Overcast
5:34 AM 37.4 °F 33.8 °F 33.8 °F 87% 30.04 in 5.0 mi SW 4.6 mph - N/A   Overcast
5:54 AM 35.6 °F 30.7 °F 33.8 °F 93% 30.04 in 5.0 mi SW 5.8 mph - N/A   Mostly Cloudy
6:14 AM 35.6 °F 31.7 °F 32.0 °F 87% 30.04 in 5.0 mi SW 4.6 mph - N/A   Scattered Clouds
6:34 AM 33.8 °F 29.6 °F 30.2 °F 87% 30.04 in 5.0 mi SSW 4.6 mph - N/A   Scattered Clouds
6:54 AM 33.8 °F 28.6 °F 32.0 °F 93% 30.04 in 5.0 mi SW 5.8 mph - N/A   Scattered Clouds
7:13 AM 35.6 °F - 32.0 °F 87% 30.05 in 7.0 mi Calm Calm - N/A   Mostly Cloudy
7:34 AM 35.6 °F - 32.0 °F 87% 30.05 in 5.0 mi Calm Calm - N/A Rain Light Rain
7:54 AM 35.6 °F 32.8 °F 32.0 °F 87% 30.05 in 4.0 mi South 3.5 mph - N/A   Mostly Cloudy
8:13 AM 35.6 °F - 32.0 °F 87% 30.05 in 5.0 mi Calm Calm - N/A   Mostly Cloudy
8:34 AM 35.6 °F 30.7 °F 32.0 °F 87% 30.06 in 7.0 mi SW 5.8 mph - N/A   Mostly Cloudy
8:54 AM 35.6 °F 32.8 °F 30.2 °F 81% 30.06 in 10.0 mi West 3.5 mph - N/A   Scattered Clouds
9:13 AM 35.6 °F - 30.2 °F 81% 30.06 in 10.0 mi Calm Calm - N/A   Clear
9:34 AM 37.4 °F - 32.0 °F 81% 30.05 in 10.0 mi Calm Calm - N/A   Clear
9:54 AM 39.2 °F - 32.0 °F 75% 30.05 in 10.0 mi Calm Calm - N/A   Clear
10:13 AM 39.2 °F - 32.0 °F 75% 30.05 in 10.0 mi Calm Calm - N/A   Clear
10:34 AM 41.0 °F - 33.8 °F 76% 30.05 in 10.0 mi Calm Calm - N/A   Clear
10:54 AM 42.8 °F - 33.8 °F 70% 30.05 in 10.0 mi Calm Calm - N/A   Clear
11:13 AM 44.6 °F 43.1 °F 32.0 °F 61% 30.05 in 10.0 mi SW 3.5 mph - N/A   Clear
11:34 AM 46.4 °F 43.5 °F 32.0 °F 57% 30.06 in 10.0 mi West 5.8 mph - N/A   Clear
12:13 PM 48.2 °F - 30.2 °F 50% 30.06 in 10.0 mi WSW 8.1 mph - N/A   Scattered Clouds
12:34 PM 48.2 °F - 28.4 °F 46% 30.06 in 10.0 mi NW 8.1 mph - N/A   Scattered Clouds
12:53 PM 48.2 °F - 28.4 °F 46% 30.06 in 10.0 mi NW 8.1 mph - N/A   Clear
1:14 PM 48.2 °F - 26.6 °F 43% 30.06 in 10.0 mi NW 9.2 mph - N/A   Scattered Clouds
1:34 PM 50.0 °F - 26.6 °F 40% 30.06 in 10.0 mi West 10.4 mph - N/A   Scattered Clouds
1:53 PM 50.0 °F - 26.6 °F 40% 30.05 in 10.0 mi West 8.1 mph - N/A   Clear
2:14 PM 50.0 °F - 26.6 °F 40% 30.05 in 10.0 mi West 10.4 mph - N/A   Clear
2:34 PM 50.0 °F - 26.6 °F 40% 30.05 in 10.0 mi WNW 9.2 mph - N/A   Scattered Clouds
2:54 PM 50.0 °F - 26.6 °F 40% 30.04 in 10.0 mi West 9.2 mph - N/A   Scattered Clouds
3:14 PM 51.8 °F - 24.8 °F 35% 30.04 in 7.0 mi West 8.1 mph - N/A   Scattered Clouds
3:34 PM 51.8 °F - 24.8 °F 35% 30.04 in 10.0 mi NW 10.4 mph - N/A   Scattered Clouds
3:54 PM 51.8 °F - 24.8 °F 35% 30.05 in 10.0 mi West 10.4 mph - N/A   Scattered Clouds
4:14 PM 46.4 °F 44.3 °F 24.8 °F 43% 30.05 in 10.0 mi WNW 4.6 mph - N/A   Scattered Clouds
4:33 PM 48.2 °F - 24.8 °F 40% 30.06 in 10.0 mi WNW 6.9 mph - N/A   Scattered Clouds
4:54 PM 48.2 °F - 23.0 °F 37% 30.06 in 10.0 mi WNW 5.8 mph - N/A   Scattered Clouds
5:13 PM 48.2 °F - 23.0 °F 37% 30.06 in 10.0 mi WNW 6.9 mph - N/A   Clear
5:34 PM 46.4 °F 43.5 °F 23.0 °F 40% 30.06 in 10.0 mi WNW 5.8 mph - N/A   Clear
5:54 PM 44.6 °F - 24.8 °F 46% 30.07 in 10.0 mi Calm Calm - N/A   Clear
6:14 PM 42.8 °F - 24.8 °F 49% 30.07 in 10.0 mi Calm Calm - N/A   Clear
6:34 PM 39.2 °F - 24.8 °F 56% 30.08 in 10.0 mi Calm Calm - N/A   Clear
6:54 PM 37.4 °F - 24.8 °F 60% 30.09 in 10.0 mi Calm Calm - N/A   Clear
7:14 PM 35.6 °F - 24.8 °F 65% 30.09 in 10.0 mi Calm Calm - N/A   Clear
7:34 PM 37.4 °F - 24.8 °F 60% 30.09 in 10.0 mi Calm Calm - N/A   Clear
7:54 PM 35.6 °F - 24.8 °F 65% 30.10 in 10.0 mi Calm Calm - N/A   Clear
8:14 PM 33.8 °F - 24.8 °F 70% 30.10 in 10.0 mi Calm Calm - N/A   Clear
8:34 PM 32.0 °F - 24.8 °F 75% 30.09 in 10.0 mi Calm Calm - N/A   Clear
8:53 PM 32.0 °F - 24.8 °F 75% 30.09 in 10.0 mi Calm Calm - N/A   Clear
9:14 PM 32.0 °F - 24.8 °F 75% 30.09 in 10.0 mi Calm Calm - N/A   Clear
9:34 PM 32.0 °F - 24.8 °F 75% 30.10 in 10.0 mi Calm Calm - N/A   Clear
9:53 PM 30.2 °F - 24.8 °F 80% 30.10 in 10.0 mi Calm Calm - N/A   Clear
10:14 PM 30.2 °F - 24.8 °F 80% 30.10 in 10.0 mi Calm Calm - N/A   Clear
10:33 PM 30.2 °F - 24.8 °F 80% 30.10 in 10.0 mi Calm Calm - N/A   Clear
10:54 PM 28.4 °F - 24.8 °F 86% 30.09 in 10.0 mi Calm Calm - N/A   Clear
11:14 PM 30.2 °F - 23.0 °F 75% 30.09 in 10.0 mi Calm Calm - N/A   Clear
11:33 PM 28.4 °F - 23.0 °F 80% 30.09 in 10.0 mi Calm Calm - N/A   Clear
11:54 PM 28.4 °F - 23.0 °F 80% 30.09 in 10.0 mi Calm Calm - N/A   Clear